Liste des engagé(e)s
Classement
PDF
   
         
   
 
Pos N° Nom Prénom Pays Temps Ecart Pl. Cat. Pl. Sexe Club
1 607 VERNOUX EMILE 00:14:58 1 MI 1 M JSP PONT DE VEYLE
2 544 GLAIZAL ANTOINE 00:15:36 38 2 MI 2 M JSP LA DOMBES
3 534 BERNARD REMI 00:15:48 50 3 MI 3 M JSP HAUTEVILLE
4 636 VERNATON MAXIME 00:15:54 56 4 MI 4 M JSP THOIRY SUD GESSI
5 550 RETIF FABIAN 00:16:01 01:03 5 MI 5 M JSP LA VALLIERE
6 498 PERNET LEON 00:16:18 01:20 6 MI 6 M JSP CULOZ
7 515 MOLLION ROMARIC 00:16:30 01:32 7 MI 7 M JSP GARNERANS
8 603 VEUILLET ELLIOT 00:16:41 01:43 8 MI 8 M JSP PONT DE VEYLE
9 512 FLEJSZMAN NOAH 00:16:49 01:51 9 MI 9 M JSP FORT L'ECLUSE
10 507 FERRERO ALESSSANDRO 00:16:52 01:54 10 MI 10 M JSP FORT L'ECLUSE
11 631 HERBE CLEMENT 00:17:02 02:04 11 MI 11 M JSP THOIRY SUD GESSI
12 605 GHILOTTI NOHLAN 00:17:03 02:05 12 MI 12 M JSP PONT DE VEYLE
13 595 BOUCHELLIG MAEL 00:17:04 02:06 13 MI 13 M JSP PONCIN
14 552 SIMONIN ARTHUR 00:17:06 02:08 14 MI 14 M JSP LA VALLIERE
15 561 MAHISTRE NOLAN 00:17:10 02:12 15 MI 15 M JSP MIRIBEL
16 633 MOSSU YANN 00:17:15 02:17 16 MI 16 M JSP THOIRY SUD GESSI
17 637 LINDMEIER MAXIMILIAN 00:17:20 02:22 17 MI 17 M JSP THOIRY SUD GESSI
18 487 MAALAL HEDDY 00:17:25 02:27 18 MI 18 M JSP BORDS DE L'AIN
19 641 MIGNIOT DORIAN 00:17:25 02:27 19 MI 19 M JSP THOIRY SUD GESSI
20 613 GUILLOT-COMTET LUCAS 00:17:29 02:31 20 MI 20 M JSP ST ANDRE DE CORC
21 533 PELILLO THEO 00:17:40 02:42 21 MI 21 M JSP HAUTEVILLE
22 578 LAGHMARI BILAL 00:17:45 02:47 22 MI 22 M JSP NORD EST GESSIEN
23 638 CHELLES ANTOINE 00:17:46 02:48 23 MI 23 M JSP THOIRY SUD GESSI
24 583 SERGENT ROMAIN 00:17:48 02:50 24 MI 24 M JSP PLAINE TONIQUE
25 592 MERMET LUCAS 00:17:51 02:53 25 MI 25 M JSP PONCIN
26 510 THIBERT JULIEN 00:17:52 02:54 26 MI 26 M JSP FORT L'ECLUSE
27 547 CALEN SULLIVAN 00:18:09 03:11 27 MI 27 M JSP LA DOMBES
28 478 GROS--LUGAND ADONIS 00:18:14 03:16 28 MI 28 M JSP BELLEGARDE
29 558 KAPOIAN FAVEL BENOIT 00:18:24 03:26 29 MI 29 M JSP MIRIBEL
30 503 CHEVANCE QUENTIN 00:18:26 03:28 30 MI 30 M JSP FORT L'ECLUSE
31 645 BAILLEUX BASTIEN 00:18:28 03:30 31 MI 31 M JSP VAL DE SAONE SUD
32 576 HOSPITALIER THIBAULT 00:18:31 03:33 32 MI 32 M JSP NORD EST GESSIEN
33 598 AULEN ETIENNE 00:18:43 03:45 33 MI 33 M JSP PONT DE VAUX
34 593 BOUSSANT FLAVIEN 00:18:45 03:47 34 MI 34 M JSP PONCIN
35 594 GORIUS SAM 00:18:48 03:50 35 MI 35 M JSP PONCIN
36 504 MALANDAIN ANAKIN 00:18:54 03:56 36 MI 36 M JSP FORT L'ECLUSE
37 477 MENDEZ BAPTISTE 00:18:57 03:59 37 MI 37 M JSP AMBERIEU EN BUGE
38 614 DEBORDE DORYAN 00:19:02 04:04 38 MI 38 M JSP ST MAURICE
39 501 PATUEL NOLAN 00:19:08 04:10 39 MI 39 M JSP DU RENON
40 615 EL ABED MOHAMED ENINE 00:19:08 04:10 40 MI 40 M JSP ST MAURICE
41 508 SEGRETO RAPHAEL 00:19:11 04:13 41 MI 41 M JSP FORT L'ECLUSE
42 546 MATY ADRIEN 00:19:16 04:18 42 MI 42 M JSP LA DOMBES
43 541 EPINAT MATHEO 00:19:17 04:19 43 MI 43 M JSP HAUTEVILLE
44 529 DOUSSET ELIOTT 00:19:19 04:21 44 MI 44 M JSP HAUTE VALSERINE
45 548 DOMENEC LUIS 00:19:19 04:21 45 MI 45 M JSP LA DOMBES
46 532 FERREIRA MANES 00:19:21 04:23 46 MI 46 M JSP HAUTE VALSERINE
47 485 DARCHY JEAN-BASTIEN 00:19:23 04:25 47 MI 47 M JSP BORDS DE L'AIN
48 642 SINGERT FLORIAN 00:19:24 04:26 48 MI 48 M JSP VAL DE SAONE SUD
49 586 COLAS ALEXIS 00:19:25 04:27 49 MI 49 M JSP PLAINE TONIQUE
50 590 ROLAND-CARVALHOSA THIBO 00:19:26 04:28 50 MI 50 M JSP PONCIN
51 471 COQUELIN LUCAS 00:19:26 04:28 51 MI 51 M JSP AMBERIEU EN BUGE
52 475 SIMARD LUC 00:19:27 04:29 52 MI 52 M JSP AMBERIEU EN BUGE
53 526 POUPON ANTHONY 00:19:28 04:30 53 MI 53 M JSP HAUT BUGEY
54 566 JOSEPH LUCAS 00:19:29 04:31 54 MI 54 M JSP MIRIBEL
55 484 DOUIDI ABDELRAOUF 00:19:32 04:34 55 MI 55 M JSP BELLEGARDE
56 648 COGNE-RODRIGUES LENNY 00:19:34 04:36 56 MI 56 M JSP VAL DE SAONE SUD
57 502 GOTTLE DIMITRI 00:19:36 04:38 57 MI 57 M JSP FORT L'ECLUSE
58 486 BAGNON TOMMY 00:19:37 04:39 58 MI 58 M JSP BORDS DE L'AIN
59 528 AIT-HATRIT ERWAN 00:19:37 04:39 59 MI 59 M JSP HAUT BUGEY
60 535 CHASTAN SAMUEL 00:19:39 04:41 60 MI 60 M JSP HAUTEVILLE
61 647 ORTEGA MATHIS 00:19:40 04:42 61 MI 61 M JSP VAL DE SAONE SUD
62 644 COUPIN Adam 00:19:40 04:42 62 MI 62 M JSP VAL DE SAONE SUD
63 635 FRANK MAXIMILIAN 00:19:43 04:45 63 MI 63 M JSP THOIRY SUD GESSI
64 640 FOSSE NOE 00:19:48 04:50 64 MI 64 M JSP THOIRY SUD GESSI
65 597 TENANT MARCELIN 00:19:49 04:51 65 MI 65 M JSP PONCIN
66 509 BIOLAY THEO 00:19:56 04:58 66 MI 66 M JSP FORT L'ECLUSE
67 591 BROCARD JORIS 00:20:04 05:06 67 MI 67 M JSP PONCIN
68 539 GROS GALVIN 00:20:11 05:13 68 MI 68 M JSP HAUTEVILLE
69 612 AGOUX HUGO 00:20:16 05:18 69 MI 69 M JSP ST ANDRE DE CORC
70 513 MERIDJI NOAH 00:20:16 05:18 70 MI 70 M JSP FORT L'ECLUSE
71 511 ARNOUX JULIEN 00:20:16 05:18 71 MI 71 M JSP FORT L'ECLUSE
72 582 NOTTEAU LUCAS 00:20:19 05:21 72 MI 72 M JSP NORD EST GESSIEN
73 581 MEUNIER AXEL 00:20:23 05:25 73 MI 73 M JSP NORD EST GESSIEN
74 542 DEWAREZ RIWAL 00:20:27 05:29 74 MI 74 M JSP HAUTEVILLE
75 520 HENRIQUES DOS REIS NOLANNE 00:20:27 05:29 75 MI 75 M JSP HAUT BUGEY
76 575 FORCHI ILARIO 00:20:37 05:39 76 MI 76 M JSP MONTMERLE SUR SA
77 646 NOYER ENZO 00:20:42 05:44 77 MI 77 M JSP VAL DE SAONE SUD
78 496 BUFFET NATHANAEL 00:20:46 05:48 78 MI 78 M JSP COLIGNY
79 589 TENACE RAPHAEL 00:20:50 05:52 79 MI 79 M JSP PLAINE TONIQUE
80 606 ARAUJO THOMAS 00:20:52 05:54 80 MI 80 M JSP PONT DE VEYLE
81 565 GITTON CRIS 00:20:56 05:58 81 MI 81 M JSP MIRIBEL
82 505 ROLANDEZ MAXIME 00:20:59 06:01 82 MI 82 M JSP FORT L'ECLUSE
83 514 DELETRAZ LEO 00:21:03 06:05 83 MI 83 M JSP FORT L'ECLUSE
84 500 LONGE LEO 00:21:06 06:08 84 MI 84 M JSP CULOZ
85 524 PARIS MICHEL 00:21:12 06:14 85 MI 85 M JSP HAUT BUGEY
86 493 BERNASCONI JEWELL MAORI 00:21:14 06:16 86 MI 86 M JSP BOURG EN BRESSE
87 559 FEVRE AURELIEN 00:21:15 06:17 87 MI 87 M JSP MIRIBEL
88 522 OLIVIER ADRIEN 00:21:42 06:44 88 MI 88 M JSP HAUT BUGEY
89 621 DANGAIN SACHA 00:21:49 06:51 89 MI 89 M JSP ST SORLIN/LAGNIE
90 506 AMMARI VICTOR 00:21:54 06:56 90 MI 90 M JSP FORT L'ECLUSE
91 596 SUC SIMEON 00:22:02 07:04 91 MI 91 M JSP PONCIN
92 652 MONESTIER BAPTISTE 00:22:03 07:05 92 MI 92 M CADET DE LA SECURITE CIVILE
93 557 BRANDELET THOMAS 00:22:04 07:06 93 MI 93 M JSP MIRIBEL
94 577 PERROUD MATHIEU 00:22:06 07:08 94 MI 94 M JSP NORD EST GESSIEN
95 531 ECHALLIER LEO 00:22:08 07:10 95 MI 95 M JSP HAUTE VALSERINE
96 639 SOROS JULIEN 00:22:13 07:15 96 MI 96 M JSP THOIRY SUD GESSI
97 584 PERRIN JULES 00:22:24 07:26 97 MI 97 M JSP PLAINE TONIQUE
98 482 GAILLARD ETHAN 00:22:25 07:27 98 MI 98 M JSP HAUTE VALSERINE
99 563 JARRIN ANTOINE 00:22:32 07:34 99 MI 99 M JSP MIRIBEL
100 622 GAUDIMIER RAPHAEL 00:22:40 07:42 100 MI 100 M JSP ST SORLIN/LAGNIE
101 574 MAUPPIN VINCENT 00:22:42 07:44 101 MI 101 M JSP MONTMERLE SUR SA
102 499 ROUGER SAMUEL 00:22:42 07:44 102 MI 102 M JSP CULOZ
103 602 COMTET BASTIEN 00:22:51 07:53 103 MI 103 M JSP PONT DE VEYLE
104 490 GARIN RAPHAEL 00:22:53 07:55 104 MI 104 M JSP BORDS DU RHONE
105 536 GOJON YOAN 00:23:07 08:09 105 MI 105 M JSP HAUTEVILLE
106 521 MARTIN YANNIS 00:23:15 08:17 106 MI 106 M JSP HAUT BUGEY
107 494 VIOLY FEVRE AMBROISE 00:23:32 08:34 107 MI 107 M JSP COLIGNY
108 495 RENOUD TOM 00:23:34 08:36 108 MI 108 M JSP COLIGNY
109 569 BONNOT BASTIEN 00:23:37 08:39 109 MI 109 M JSP MONTMERLE SUR SA
110 549 GASSER KYLIAN 00:23:46 08:48 110 MI 110 M JSP LA VALLIERE
111 488 DURAFFOURD NOA 00:23:46 08:48 111 MI 111 M JSP BORDS DE L'AIN
112 476 DELAS Alexandre 00:24:00 09:02 112 MI 112 M JSP AMBERIEU EN BUGE
113 553 MAGNIN AUGUSTE 00:24:01 09:03 113 MI 113 M JSP LA VALLIERE
114 570 DUNAND MAXIM 00:24:02 09:04 114 MI 114 M JSP MONTMERLE SUR SA
115 530 MULOT AYMERIC 00:24:04 09:06 115 MI 115 M JSP HAUTE VALSERINE
116 619 TITOULET GABIN 00:24:04 09:06 116 MI 116 M JSP ST SORLIN/LAGNIE
117 538 MAGE GABRIEL 00:24:09 09:11 117 MI 117 M JSP HAUTEVILLE
118 610 ARTERO YANIS 00:24:24 09:26 118 MI 118 M JSP PONT DE VEYLE
119 540 LLES SACHA 00:24:24 09:26 119 MI 119 M JSP HAUTEVILLE
120 523 SERVIGNE THIBAULT 00:24:29 09:31 120 MI 120 M JSP HAUT BUGEY
121 616 SIRE CLEMENT 00:24:55 09:57 121 MI 121 M JSP ST MAURICE
122 655 PICARD LEO 00:25:27 10:29 122 MI 122 M CADET DE LA SECURITE CIVILE
123 518 CLERTANT EMILIEN 00:25:50 10:52 123 MI 123 M JSP GARNERANS
124 611 COLOMBIER MATHIS 00:25:50 10:52 124 MI 124 M JSP PONT DE VEYLE
125 571 CHAPOLLET QUENTIN 00:25:55 10:57 125 MI 125 M JSP MONTMERLE SUR SA
126 525 PICCOLI ROMAIN 00:25:55 10:57 126 MI 126 M JSP HAUT BUGEY
127 609 PECHAUD RAPHAEL 00:25:58 11:00 127 MI 127 M JSP PONT DE VEYLE
128 587 BLIN LORENZO 00:26:05 11:07 128 MI 128 M JSP PLAINE TONIQUE
129 604 GONNARD BOURGEOIS VICTOR 00:26:39 11:41 129 MI 129 M JSP PONT DE VEYLE
130 573 BERTRAND ENZO 00:26:57 11:59 130 MI 130 M JSP MONTMERLE SUR SA
131 567 MEZIANE ILYES 00:27:15 12:17 131 MI 131 M JSP MONTLUEL
132 489 KHERDOUCHE ALEXIS 00:28:10 13:12 132 MI 132 M JSP BORDS DE L'AIN
133 517 LAMIRAL MELVYN 00:28:11 13:13 133 MI 133 M JSP GARNERANS
134 562 TORREGROSA JEREMY 00:29:17 14:19 134 MI 134 M JSP MIRIBEL
135 556 SALAMON ARTHUR 01:04:38 49:40 135 MI 135 M JSP MIRIBEL
  CROSS 01 POMPIERS - MINIMES G- ChronomĂ©trage Perf Event 2020
 
Nombre ou lettres (3 minimum)
Classement    
Filtre :
Rang :